Tatalina, AK

5:11 PM AKDT on April 24, 2018 (GMT -0800)
Tatalina

Weather History for PATL - January, 2013

Change the Weather History Date:

Wednesday, January 16, 2013

  Actual Average Record
Temperature  
Mean Temperature 5 °F -  
Max Temperature 10 °F 5 °F 46 °F (2009)
Min Temperature -1 °F -1 °F -23 °F (2017)
Degree Days  
Heating Degree Days 60    
Moisture  
Dew Point 0 °F    
Average Humidity 86    
Maximum Humidity 96    
Minimum Humidity 78    
Precipitation  
Precipitation 0.00 in - - ()
Sea Level Pressure  
Sea Level Pressure 30.18 in    
Wind  
Wind Speed 3 mph (SW)    
Max Wind Speed 6 mph    
Max Gust Speed -    
Visibility 8 miles    
Events Snow    
Averages and records for this station are not official NWS values.
T = Trace of Precipitation, MM = Missing Value Source: NWS Daily Summary

Daily Weather History Graph

Daily Weather History Graph

Search for Another Location

Airport or City:

Astronomy

Jan. 16, 2013 Rise Set
Actual Time 10:34 AM AKST 4:34 PM AKST
Civil Twilight 9:32 AM AKST 5:35 PM AKST
Nautical Twilight 8:32 AM AKST 6:35 PM AKST
Astronomical Twilight 7:37 AM AKST 7:30 PM AKST
Moon 11:05 AM AKST (1/16) No Moon Set
Length of Visible Light 8h 02m
Length of Day
6h 00m
Waxing Crescent, 29% of the Moon is Illuminated
Jan 16
Waxing Crescent
Jan 18
First Quarter
Jan 26
Full
Feb 3
Last Quarter
Feb 9
New

Hourly Weather History & Observations

Time (AKST) Temp. Windchill Dew Point Humidity Pressure Visibility Wind Dir Wind Speed Gust Speed Precip Events Conditions
12:55 AM 10.0 °F 3.6 °F 9.1 °F 96% 30.25 in 10.0 mi Variable 3.5 mph - N/A   Mostly Cloudy
1:15 AM 10.4 °F - 8.6 °F 92% 30.25 in 10.0 mi NNE 2.3 mph - N/A Snow Light Snow Showers
1:35 AM 10.4 °F 4.0 °F 8.6 °F 92% 30.25 in 10.0 mi South 3.5 mph - N/A   Mostly Cloudy
1:55 AM 9.5 °F 3.0 °F 8.1 °F 94% 30.25 in 10.0 mi NNE 3.5 mph - N/A   Mostly Cloudy
2:55 AM 9.3 °F - 7.9 °F 94% 30.24 in 10.0 mi NW 1.2 mph - N/A   Overcast
3:35 AM 8.6 °F 2.0 °F 6.8 °F 92% 30.23 in 10.0 mi SSW 3.5 mph - N/A Snow Light Snow Showers
3:55 AM 8.4 °F 1.8 °F 6.3 °F 91% 30.23 in 10.0 mi SW 3.5 mph - N/A   Overcast
4:35 AM 6.8 °F -0.1 °F 3.2 °F 85% 30.23 in 10.0 mi South 3.5 mph - N/A Snow Light Snow Showers
4:55 AM 6.1 °F - 3.9 °F 91% 30.23 in 10.0 mi West 1.2 mph - N/A Snow Light Snow Showers
5:55 AM 4.1 °F -5.1 °F 0.7 °F 86% 30.23 in 10.0 mi West 4.6 mph - N/A Snow Light Snow Showers
6:55 AM 3.7 °F -3.6 °F -1.5 °F 79% 30.23 in 10.0 mi Variable 3.5 mph - N/A Snow Light Snow Showers
7:15 AM 3.2 °F -7.8 °F -2.2 °F 78% 30.23 in 10.0 mi West 5.8 mph - N/A Snow Light Snow Showers
7:55 AM 2.7 °F -4.8 °F -0.8 °F 86% 30.23 in 4.0 mi Variable 3.5 mph - N/A Snow Light Snow
8:15 AM 3.2 °F -4.2 °F -2.2 °F 78% 30.23 in 5.0 mi West 3.5 mph - N/A Snow Light Snow
8:55 AM 1.4 °F -8.3 °F -2.9 °F 82% 30.23 in 4.0 mi West 4.6 mph - N/A Snow Light Snow
9:55 AM 1.2 °F -6.4 °F -1.1 °F 90% 30.22 in 7.0 mi NNE 3.5 mph - N/A Snow Light Snow
10:55 AM 0.5 °F - -2.2 °F 88% 30.22 in 4.0 mi North 2.3 mph - N/A Snow Light Snow
11:55 AM -0.0 °F - -2.4 °F 90% 30.21 in 9.0 mi NE 2.3 mph - N/A Snow Light Snow
12:55 PM 0.5 °F - -2.4 °F 88% 30.20 in 5.0 mi SSE 1.2 mph - N/A Snow Light Snow Showers
1:55 PM 0.9 °F -6.9 °F -2.4 °F 86% 30.19 in 9.0 mi Variable 3.5 mph - N/A Snow Light Snow
2:55 PM 1.2 °F -6.4 °F -3.6 °F 80% 30.17 in 10.0 mi South 3.5 mph - N/A Snow Light Snow
3:55 PM 0.9 °F - -3.3 °F 83% 30.16 in 2.5 mi West 2.3 mph - N/A Snow Light Snow
4:15 PM 1.4 °F - -4.0 °F 78% 30.15 in 8.0 mi WSW 1.2 mph - N/A Snow Light Snow
4:55 PM 0.7 °F - -3.1 °F 84% 30.14 in 6.0 mi SW 2.3 mph - N/A Snow Light Snow
5:55 PM 0.5 °F -7.3 °F -2.7 °F 86% 30.14 in 10.0 mi SW 3.5 mph - N/A Snow Light Snow
6:55 PM 0.1 °F - -3.3 °F 85% 30.12 in 10.0 mi SSE 2.3 mph - N/A Snow Light Snow
7:55 PM 0.5 °F - -2.9 °F 85% 30.11 in 10.0 mi ESE 2.3 mph - N/A Snow Light Snow
8:15 PM 1.4 °F - -2.2 °F 85% 30.10 in 10.0 mi ENE 2.3 mph - N/A   Overcast
8:35 PM 1.4 °F - -4.0 °F 78% 30.10 in 10.0 mi Variable 2.3 mph - N/A Snow Light Snow Showers
8:55 PM 0.3 °F - -2.9 °F 86% 30.10 in 7.0 mi Variable 1.2 mph - N/A Snow Light Snow Showers
9:55 PM -0.0 °F - -2.6 °F 89% 30.08 in 8.0 mi ENE 2.3 mph - N/A Snow Light Snow
10:55 PM -0.2 °F - -3.5 °F 86% 30.08 in 10.0 mi East 1.2 mph - N/A Snow Light Snow
11:55 PM -1.1 °F - -4.0 °F 88% 30.06 in 5.0 mi Variable 1.2 mph - N/A Snow Light Snow